TimeEST,TemperatureF,Dew PointF,Humidity,Sea Level PressureIn,VisibilityMPH,Wind Direction,Wind SpeedMPH,Gust SpeedMPH,PrecipitationIn,Events,Conditions,WindDirDegrees,DateUTC
12:54 AM,48.9,48.0,97,29.98,5.0,WSW,3.5,-,0.03,Rain,Light Rain,250,2013-01-17 05:54:00
1:19 AM,48.2,48.2,100,29.97,2.5,South,4.6,-,0.03,Rain,Rain,180,2013-01-17 06:19:00
1:29 AM,48.2,48.2,100,29.96,4.0,South,4.6,-,0.03,Rain,Light Rain,170,2013-01-17 06:29:00
1:54 AM,48.9,48.0,97,29.96,4.0,Calm,Calm,-,0.04,Rain,Light Rain,0,2013-01-17 06:54:00
2:54 AM,48.9,48.0,97,29.96,3.0,North,3.5,-,0.02,Rain,Rain,10,2013-01-17 07:54:00
3:01 AM,48.2,48.2,100,29.97,1.8,North,3.5,-,0.02,Rain,Rain,350,2013-01-17 08:01:00
3:08 AM,48.2,48.2,100,29.97,2.0,North,3.5,-,0.03,Rain,Light Rain,350,2013-01-17 08:08:00
3:22 AM,48.2,48.2,100,29.97,3.0,NNE,4.6,-,0.07,Rain,Rain,20,2013-01-17 08:22:00
3:37 AM,48.2,48.2,100,29.97,3.0,NE,4.6,-,0.09,Rain,Rain,40,2013-01-17 08:37:00
3:44 AM,48.2,48.2,100,29.97,2.5,NE,4.6,-,0.09,Rain,Light Rain,40,2013-01-17 08:44:00
3:54 AM,48.9,48.0,97,29.97,2.5,NNE,5.8,-,0.12,Rain,Rain,30,2013-01-17 08:54:00
4:15 AM,48.2,48.2,100,29.97,4.0,NNE,6.9,-,0.04,Rain,Light Rain,30,2013-01-17 09:15:00
4:32 AM,48.2,48.2,100,29.96,2.0,NE,9.2,-,0.09,Rain,Heavy Rain,50,2013-01-17 09:32:00
4:42 AM,48.2,48.2,100,29.97,4.0,ENE,9.2,-,0.10,Rain,Light Rain,60,2013-01-17 09:42:00
4:54 AM,48.9,46.9,93,29.96,5.0,NE,9.2,-,0.10,Rain,Light Rain,50,2013-01-17 09:54:00
5:54 AM,48.0,46.9,96,29.97,4.0,ENE,8.1,-,0.03,Rain,Light Rain,60,2013-01-17 10:54:00
6:08 AM,48.2,46.4,93,29.96,4.0,NE,8.1,-,0.01,Rain,Light Rain,50,2013-01-17 11:08:00
6:40 AM,48.2,46.4,93,29.97,10.0,NE,10.4,-,0.02,,Overcast,50,2013-01-17 11:40:00
6:54 AM,48.0,46.0,93,29.98,10.0,NE,8.1,-,0.02,Rain,Light Rain,40,2013-01-17 11:54:00
7:54 AM,48.0,46.0,93,30.00,4.0,NE,10.4,-,0.04,Rain,Light Rain,40,2013-01-17 12:54:00
8:54 AM,46.9,45.0,93,30.02,3.0,NE,10.4,-,0.03,Rain,Light Rain,50,2013-01-17 13:54:00
9:12 AM,46.4,44.6,93,30.04,1.5,NE,10.4,17.3,0.01,Rain,Light Rain,50,2013-01-17 14:12:00
9:47 AM,44.6,42.8,93,30.03,2.5,ENE,15.0,-,0.06,Rain,Rain,60,2013-01-17 14:47:00
9:54 AM,44.1,42.1,93,30.03,2.5,NE,15.0,25.3,0.06,Rain,Light Rain,50,2013-01-17 14:54:00
10:54 AM,43.0,42.1,97,30.02,2.5,NNE,13.8,17.3,0.07,Rain,Rain,30,2013-01-17 15:54:00
11:41 AM,39.2,39.2,100,30.01,1.5,NNE,10.4,21.9,0.06,Rain,Rain,20,2013-01-17 16:41:00
11:54 AM,39.9,37.9,93,30.01,1.2,North,13.8,20.7,0.14,Rain,Heavy Rain,10,2013-01-17 16:54:00
12:00 PM,39.2,37.4,93,30.00,1.5,NNE,12.7,20.7,0.02,Rain,Heavy Rain,20,2013-01-17 17:00:00
12:46 PM,39.2,39.2,100,29.97,2.5,NNE,9.2,-,0.11,Rain,Light Rain,30,2013-01-17 17:46:00
12:54 PM,39.9,39.0,97,29.97,3.0,North,11.5,18.4,0.11,Rain,Light Rain,10,2013-01-17 17:54:00
1:02 PM,39.2,39.2,100,29.94,1.8,NNE,15.0,20.7,0.01,Rain,Rain,30,2013-01-17 18:02:00
1:54 PM,39.9,39.0,97,29.90,1.5,NE,17.3,26.5,0.09,Rain,Light Rain,40,2013-01-17 18:54:00
2:15 PM,41.0,39.2,93,29.90,3.0,NNE,13.8,23.0,0.00,Rain,Light Rain,30,2013-01-17 19:15:00
2:54 PM,41.0,39.0,93,29.91,10.0,NNE,11.5,23.0,0.00,Rain,Light Rain,20,2013-01-17 19:54:00
3:18 PM,41.0,39.2,93,29.90,1.5,NE,17.3,28.8,0.01,Rain,Light Rain,40,2013-01-17 20:18:00
3:25 PM,41.0,39.2,93,29.90,1.2,NE,18.4,27.6,0.02,Rain,Light Rain,40,2013-01-17 20:25:00
3:54 PM,41.0,39.0,93,29.91,2.0,NNE,13.8,21.9,0.04,Rain,Light Rain,30,2013-01-17 20:54:00
4:14 PM,41.0,39.2,93,29.93,1.2,NNE,11.5,19.6,0.05,Rain,Heavy Rain,20,2013-01-17 21:14:00
4:31 PM,39.2,39.2,100,29.93,1.5,NNE,13.8,23.0,0.13,Rain,Rain,20,2013-01-17 21:31:00
4:54 PM,39.0,37.9,96,29.93,1.5,NNE,16.1,31.1,0.23,Rain,Heavy Rain,20,2013-01-17 21:54:00
5:09 PM,39.2,37.4,93,29.89,2.5,NNE,17.3,32.2,0.07,Rain,Heavy Rain,20,2013-01-17 22:09:00
5:42 PM,37.4,35.6,93,29.91,3.0,NNE,19.6,29.9,0.19,Rain,Rain,30,2013-01-17 22:42:00
5:54 PM,37.9,36.0,93,29.94,2.5,NNE,21.9,35.7,0.24,Rain,Heavy Rain,30,2013-01-17 22:54:00
6:54 PM,35.1,33.1,92,29.98,1.8,NNE,17.3,25.3,0.31,Rain-Snow,Rain,20,2013-01-17 23:54:00
7:05 PM,33.8,32.0,93,29.97,1.0,NNE,17.3,24.2,0.03,Rain-Snow,Rain,20,2013-01-18 00:05:00
7:20 PM,33.8,32.0,93,29.97,1.0,NNE,19.6,25.3,0.08,Rain-Snow-Thunderstorm,Thunderstorms and Rain,30,2013-01-18 00:20:00
7:34 PM,33.8,32.0,93,29.97,2.5,NNE,15.0,24.2,0.15,Snow-Thunderstorm,Light Thunderstorms and Snow,30,2013-01-18 00:34:00
7:46 PM,33.8,32.0,93,29.99,1.8,NNE,13.8,25.3,0.17,Snow,Light Snow,20,2013-01-18 00:46:00
7:54 PM,33.1,32.0,96,30.01,1.8,NNE,11.5,21.9,0.19,Snow,Light Snow,20,2013-01-18 00:54:00
8:04 PM,33.8,32.0,93,29.99,1.0,NNE,11.5,19.6,0.03,Snow,Light Snow,30,2013-01-18 01:04:00
8:14 PM,33.8,32.0,93,29.99,0.8,NNE,15.0,20.7,0.05,Snow-Thunderstorm,Light Thunderstorms and Snow,30,2013-01-18 01:14:00
8:54 PM,33.1,32.0,96,30.02,0.8,NNE,11.5,19.6,0.18,Snow,Light Snow,20,2013-01-18 01:54:00
9:56 PM,33.8,32.0,93,30.03,1.0,NNE,9.2,-,0.00,Snow-Thunderstorm,Light Thunderstorms and Snow,30,2013-01-18 02:56:00
10:31 PM,33.8,32.0,93,30.10,1.0,Calm,Calm,-,0.06,Snow,Light Snow,0,2013-01-18 03:31:00
10:54 PM,32.0,32.0,100,30.14,1.0,West,5.8,-,0.11,Snow,Light Snow,260,2013-01-18 03:54:00
11:23 PM,33.8,32.0,93,30.14,4.0,NNW,4.6,-,0.02,Snow,Light Snow,340,2013-01-18 04:23:00
11:42 PM,33.8,32.0,93,30.15,7.0,NNW,6.9,-,0.02,,Overcast,330,2013-01-18 04:42:00
11:54 PM,33.1,32.0,96,30.17,7.0,NW,5.8,-,0.02,,Overcast,320,2013-01-18 04:54:00